Regional Weather Roundup
Issued by NWS Memphis, TN

Home | Current Version | Previous Version | Text Only | Print | Product List | Glossary On
Versions: 1 2 3 4 5 6 7 8 9 10 11 12 13 14 15 16 17 18 19 20 21 22 23 24 25 26 27 28 29 30 31 32 33 34 35 36 37 38 39 40 41 42 43 44 45 46 47 48 49 50
000
ASUS44 KMEG 311810
RWRMEG
MEMPHIS CWA HOURLY WEATHER ROUNDUP
NATIONAL WEATHER SERVICE MEMPHIS TN
1200 PM CST SAT JAN 31 2015

...WEST TENNESSEE...

CITY           SKY/WX    TMP DP  RH WIND       PRES   REMARKS
MEMPHIS INTL   CLOUDY    44  23  43 E7        30.32F
6HR MIN TEMP:  38; 6HR MAX TEMP:  44;

NWS MEMPHIS      N/A     43 N/A N/A MISG        N/A
JACKSON        CLOUDY    44  24  45 E9        30.32F
6HR MIN TEMP:  28; 6HR MAX TEMP:  44;

LEXINGTON      SUNNY     43  21  42 CALM      30.35F
SAVANNAH       SUNNY     45  21  39 CALM      30.34F
DYERSBURG      CLOUDY    45  19  36 S5        30.36F
6HR MIN TEMP:  30; 6HR MAX TEMP:  45;

UNION CITY     SUNNY     39  25  56 CALM      30.34F
PARIS          SUNNY     41  21  45 CALM      30.36F


...EASTERN ARKANSAS...

CITY           SKY/WX    TMP DP  RH WIND       PRES   REMARKS
JONESBORO      CLOUDY    41  27  57 SE6       30.32F
6HR MIN TEMP:  34; 6HR MAX TEMP:  42;

WEST MEMPHIS   CLOUDY    43  25  49 SE8       30.32F
6HR MIN TEMP:  37; 6HR MAX TEMP:  43;

BATESVILLE     CLOUDY    43  25  49 S5        30.32F
6HR MIN TEMP:  36; 6HR MAX TEMP:  43;

NEWPORT        CLOUDY    43  28  55 CALM      30.33F
6HR MIN TEMP:  34; 6HR MAX TEMP:  43;

WALNUT RIDGE   CLOUDY    43  27  52 CALM      30.32F
6HR MIN TEMP:  34; 6HR MAX TEMP:  43;

BLYTHEVILLE    CLOUDY    44  24  45 SE7       30.33F
6HR MIN TEMP:  32; 6HR MAX TEMP:  44;

SEARCY         CLOUDY    45  28  51 E6        30.33F
6HR MIN TEMP:  37; 6HR MAX TEMP:  45;

STUTTGART      CLOUDY    43  27  52 E7        30.32F
6HR MIN TEMP:  37; 6HR MAX TEMP:  43;

PINE BLUFF     CLOUDY    43  28  55 SE9       30.31F
6HR MIN TEMP:  38; 6HR MAX TEMP:  43;

MONTICELLO     CLOUDY    49  27  42 SE6       30.29F
6HR MIN TEMP:  35; 6HR MAX TEMP:  49;



...NORTH MISSISSIPPI...

CITY           SKY/WX    TMP DP  RH WIND       PRES   REMARKS
TUPELO         PTSUNNY   50  21  32 SE7       30.33F
6HR MIN TEMP:  32; 6HR MAX TEMP:  50;

OXFORD         PTSUNNY   46  21  36 SE7       30.33F
OLIVE BRANCH   CLOUDY    41  27  56 E6        30.32F
TUNICA         CLOUDY    45  27  49 SE3       30.33F
CLARKSDALE     CLOUDY    45  28  53 E6        30.32F
CORINTH        PTSUNNY   46  25  42 SE5       30.33F
GRENADA        PTSUNNY   46  28  49 E8        30.32F
GREENWOOD      PTSUNNY   53  23  31 E9        30.30F
6HR MIN TEMP:  33; 6HR MAX TEMP:  53;

COLUMBUS       PTSUNNY   53  19  26 SE5       30.33F
6HR MIN TEMP:  31; 6HR MAX TEMP:  53;

STARKVILLE     FAIR      50  27  40 E6        30.33F
GOLDEN TRIANGL MOSUNNY   52  23  32 S5        30.34F


...SOUTHEAST MISSOURI...

CITY           SKY/WX    TMP DP  RH WIND       PRES   REMARKS
WEST PLAINS    CLOUDY    41  22  46 SE7       30.28F
6HR MIN TEMP:  33; 6HR MAX TEMP:  41; 6HR PCP: TRACE;

POPLAR BLUFF   CLOUDY    39  27  62 E9        30.30F WCI  33
6HR MIN TEMP:  31; 6HR MAX TEMP:  39;

CAPE GIRARDEAU CLOUDY    41  27  57 S7        30.35F
6HR MIN TEMP:  30; 6HR MAX TEMP:  42;



...NORTHWEST ALABAMA...

CITY           SKY/WX    TMP DP  RH WIND       PRES   REMARKS
MUSCLE SHOALS  PTSUNNY   48  22  35 E6        30.36F
6HR MIN TEMP:  31; 6HR MAX TEMP:  48;



...MIDDLE TENNESSEE...

CITY           SKY/WX    TMP DP  RH WIND       PRES   REMARKS
NASHVILLE      CLOUDY    43  23  45 E5        30.37F
6HR MIN TEMP:  24; 6HR MAX TEMP:  44;

CLARKSVILLE    MOSUNNY   44  21  40 SE5       30.35F
6HR MIN TEMP:  24; 6HR MAX TEMP:  44;

COLUMBIA       SUNNY     43  25  49 E3        30.33F


...WESTERN KENTUCKY...

CITY           SKY/WX    TMP DP  RH WIND       PRES   REMARKS
PADUCAH        CLOUDY    43  24  47 VRB6      30.36F
6HR MIN TEMP:  25; 6HR MAX TEMP:  43;

FORT CAMPBELL  MOSUNNY   45  21  38 VRB2      30.35F
6HR MIN TEMP:  24; 6HR MAX TEMP:  45;



...CENTRAL ARKANSAS...

CITY           SKY/WX    TMP DP  RH WIND       PRES   REMARKS
LITTLE ROCK    CLOUDY    45  26  47 SE7       30.32F
6HR MIN TEMP:  39; 6HR MAX TEMP:  45;



SKY/WX REPORTED AS FAIR MEANS FEW OR NO CLOUDS BELOW
12 THOUSAND FEET.




USA.gov is the U.S. government's official web portal to all federal, state and local government web resources and services.